Atlanta Dekalb, GA

7:29 PM EST on November 18, 2017 (GMT -0500)
Dekalb-Peachtree

Weather History for KPDK - December, 2014

Change the Weather History Date:

Tuesday, December 30, 2014

  Actual Average Record
Temperature  
Mean Temperature 44 °F 42 °F  
Max Temperature 53 °F 51 °F 69 °F (1996)
Min Temperature 35 °F 33 °F 18 °F (2000)
Degree Days  
Heating Degree Days 21 23  
Month to date heating degree days 508 618  
Since 1 July heating degree days 1172 1145  
Moisture  
Dew Point 41 °F    
Average Humidity 76    
Maximum Humidity 93    
Minimum Humidity 59    
Precipitation  
Precipitation 0.00 in 0.09 in 1.29 in (2015)
Month to date precipitation 4.24 4.07  
Year to date precipitation 46.91 52.88  
Snow  
Snow 0.00 in - - ()
Month to date snowfall 0.0  
Since 1 July snowfall 0.0  
Snow Depth -    
Sea Level Pressure  
Sea Level Pressure 30.27 in    
Wind  
Wind Speed 8 mph (NW)    
Max Wind Speed 16 mph    
Max Gust Speed 21 mph    
Visibility 10 miles    
Events      
T = Trace of Precipitation, MM = Missing Value Source: NWS Daily Summary

Daily Weather History Graph

Daily Weather History Graph

Search for Another Location

Airport or City:

Trip Planner

Search our weather history database for the weather conditions in past years. The results will help you decide how hot, cold, wet, or windy it might be!

Date:

Astronomy

Dec. 30, 2014 Rise Set
Actual Time 7:41 AM EST 5:37 PM EST
Civil Twilight 7:14 AM EST 6:05 PM EST
Nautical Twilight 6:43 AM EST 6:36 PM EST
Astronomical Twilight 6:12 AM EST 7:07 PM EST
Moon 1:40 PM EST (12/30) 2:13 AM EST (12/30)
Length of Visible Light 10h 51m
Length of Day
9h 55m
Waxing Gibbous, 71% of the Moon is Illuminated
Dec 30
Waxing Gibbous
Jan 4
Full
Jan 13
Last Quarter
Jan 20
New
Jan 26
First Quarter

Hourly Weather History & Observations

Time (EST) Temp. Windchill Dew Point Humidity Pressure Visibility Wind Dir Wind Speed Gust Speed Precip Events Conditions
12:05 AM 53.6 °F - 50.0 °F 88% 30.11 in 10.0 mi Calm Calm - N/A   Overcast
12:53 AM 53.1 °F - 50.0 °F 89% 30.11 in 9.0 mi NW 5.8 mph - N/A   Overcast
1:53 AM 52.0 °F - 48.9 °F 89% 30.13 in 10.0 mi NW 6.9 mph - N/A   Overcast
2:53 AM 51.1 °F - 48.0 °F 89% 30.15 in 10.0 mi West 4.6 mph - N/A   Overcast
3:49 AM 50.0 °F - 46.4 °F 87% 30.17 in 10.0 mi WNW 11.5 mph - N/A   Overcast
3:53 AM 50.0 °F - 46.0 °F 86% 30.17 in 10.0 mi West 9.2 mph - N/A   Overcast
4:05 AM 48.2 °F - 46.4 °F 93% 30.17 in 10.0 mi WNW 8.1 mph - N/A   Overcast
4:17 AM 48.2 °F - 46.4 °F 93% 30.17 in 10.0 mi West 6.9 mph - N/A   Overcast
4:53 AM 48.9 °F - 46.0 °F 90% 30.17 in 10.0 mi West 5.8 mph - N/A   Overcast
5:53 AM 48.0 °F - 45.0 °F 89% 30.19 in 10.0 mi NW 5.8 mph - N/A   Overcast
6:53 AM 46.9 °F - 45.0 °F 93% 30.22 in 10.0 mi West 8.1 mph - N/A   Overcast
7:53 AM 46.0 °F 41.0 °F 44.1 °F 93% 30.25 in 10.0 mi WNW 10.4 mph - N/A   Overcast
8:53 AM 45.0 °F 40.6 °F 42.1 °F 90% 30.29 in 10.0 mi WNW 8.1 mph - N/A   Overcast
9:39 AM 46.4 °F 41.1 °F 41.0 °F 81% 30.29 in 10.0 mi NW 11.5 mph - N/A   Overcast
9:53 AM 46.0 °F 41.0 °F 41.0 °F 83% 30.31 in 10.0 mi NW 10.4 mph - N/A   Overcast
10:01 AM 48.2 °F - 42.8 °F 82% 30.29 in 10.0 mi NW 8.1 mph - N/A   Overcast
10:16 AM 46.4 °F 40.4 °F 41.0 °F 81% 30.30 in 10.0 mi WNW 13.8 mph 19.6 mph N/A   Mostly Cloudy
10:24 AM 48.2 °F - 41.0 °F 76% 30.29 in 10.0 mi NW 11.5 mph - N/A   Mostly Cloudy
10:34 AM 50.0 °F - 41.0 °F 71% 30.29 in 10.0 mi NW 9.2 mph - N/A   Partly Cloudy
10:53 AM 50.0 °F - 41.0 °F 71% 30.30 in 10.0 mi NW 11.5 mph - N/A   Clear
11:53 AM 52.0 °F - 41.0 °F 66% 30.31 in 10.0 mi NNW 11.5 mph 20.7 mph N/A   Clear
12:53 PM 50.0 °F - 39.9 °F 68% 30.30 in 10.0 mi WNW 13.8 mph - N/A   Scattered Clouds
1:13 PM 50.0 °F - 39.2 °F 66% 30.29 in 10.0 mi NW 10.4 mph - N/A   Mostly Cloudy
1:38 PM 48.2 °F - 37.4 °F 66% 30.28 in 10.0 mi NW 12.7 mph - N/A   Partly Cloudy
1:53 PM 50.0 °F - 37.9 °F 63% 30.29 in 10.0 mi NW 10.4 mph - N/A   Clear
2:53 PM 51.1 °F - 37.0 °F 59% 30.28 in 10.0 mi WNW 10.4 mph - N/A   Clear
3:53 PM 48.9 °F - 36.0 °F 61% 30.32 in 10.0 mi NW 13.8 mph - N/A   Clear
4:53 PM 46.0 °F 40.6 °F 35.1 °F 66% 30.34 in 10.0 mi NW 11.5 mph - N/A   Clear
5:53 PM 42.1 °F 37.7 °F 34.0 °F 73% 30.37 in 10.0 mi WNW 6.9 mph - N/A   Clear
6:53 PM 39.9 °F 35.1 °F 34.0 °F 79% 30.38 in 10.0 mi NW 6.9 mph - N/A   Clear
7:53 PM 39.0 °F 34.8 °F 33.1 °F 79% 30.40 in 10.0 mi NW 5.8 mph - N/A   Clear
8:53 PM 37.9 °F 32.1 °F 32.0 °F 79% 30.40 in 10.0 mi NNW 8.1 mph - N/A   Partly Cloudy
9:53 PM 36.0 °F - 32.0 °F 86% 30.42 in 10.0 mi Calm Calm - N/A   Clear
10:53 PM 37.0 °F - 33.1 °F 86% 30.42 in 10.0 mi Calm Calm - N/A   Mostly Cloudy
11:53 PM 37.9 °F - 33.1 °F 83% 30.43 in 10.0 mi Calm Calm - N/A   Overcast